GFSGBSN_925_thetae_003.txt.gz
Theta_e
315 315 315 313 312 313 314 314 316 317 316 315 314 313 313 314 314 314 315 313 312 312 311 309 309 309 315 320 317 317 316 317 317 316 313 314 315 315 314 312 312 310 310 310 309 309 309
314 315 315 312 311 312 314 314 315 316 315 313 313 313 313 313 314 314 314 312 312 311 309 309 308 312 314 315 316 317 315 315 315 314 315 314 315 315 315 312 309 309 309 309 311 311 310
314 315 315 311 311 313 314 315 314 314 314 313 313 313 313 313 313 314 313 312 312 309 309 308 310 314 319 315 317 316 315 315 316 315 314 317 317 317 312 311 310 308 310 311 311 313 313
313 314 314 310 311 313 314 315 315 314 313 314 314 313 313 313 313 313 312 311 310 309 308 310 314 315 316 314 316 316 314 315 315 316 317 316 316 315 313 311 311 312 310 311 312 314 312
313 314 312 310 312 313 315 315 314 314 313 314 314 314 313 313 312 312 310 310 309 310 313 315 314 317 315 315 316 316 315 315 317 316 316 316 315 311 311 310 309 309 311 313 315 312 314
313 314 311 310 312 313 315 314 314 313 313 313 314 314 313 311 311 310 309 310 314 314 314 314 316 317 316 316 315 316 315 316 316 316 315 314 312 312 310 308 309 312 314 312 313 313 313
312 314 311 310 312 313 315 314 314 313 313 314 315 315 312 310 310 310 312 313 312 314 316 310 314 318 318 320 315 315 315 317 316 314 315 314 314 314 314 314 314 315 314 313 312 313 315
312 313 310 310 312 314 315 314 314 314 314 314 316 316 311 310 310 312 316 319 320 321 321 316 318 317 317 317 315 315 318 317 316 316 316 314 316 315 316 317 318 317 316 317 314 315 316
312 313 309 310 311 314 315 314 314 314 314 313 315 316 313 313 313 314 314 316 324 320 318 314 317 316 316 316 315 316 317 317 317 317 316 315 316 316 317 317 319 319 317 318 316 316 316
313 312 309 310 311 314 314 313 314 314 314 313 315 315 315 315 314 318 318 319 326 325 311 314 315 315 317 316 316 316 317 317 317 315 315 316 317 318 318 318 318 321 319 318 315 318 320
313 311 309 309 310 315 314 313 313 314 314 313 315 317 315 316 319 324 326 323 326 321 312 313 316 316 315 318 317 316 318 318 317 317 317 319 319 319 318 319 319 321 319 318 318 315 315
313 310 309 309 311 314 313 313 313 313 314 313 315 320 318 317 320 327 325 323 321 318 315 317 316 317 316 317 317 316 317 316 317 316 316 318 317 318 318 318 318 318 319 319 318 317 319
312 309 309 308 312 314 313 313 313 313 313 313 315 317 319 325 329 326 322 316 315 319 318 316 317 317 317 318 319 317 317 316 319 319 319 317 317 315 317 320 318 317 320 322 322 318 320
311 308 307 308 312 313 313 313 313 314 313 313 315 317 320 328 326 322 320 315 325 320 319 315 317 317 319 319 318 318 318 316 315 319 318 319 320 316 315 317 318 317 318 320 324 319 320
308 308 307 308 312 313 313 313 314 314 313 313 317 319 328 322 321 320 317 317 323 321 317 317 319 320 320 320 318 318 317 316 317 316 321 319 319 317 316 316 318 319 315 315 317 313 317
308 307 306 308 311 312 313 313 314 313 313 314 319 324 323 321 316 319 319 322 326 321 319 317 320 319 320 319 321 320 320 319 320 315 315 317 317 316 316 318 316 315 315 317 313 316 317
307 306 307 309 310 311 312 313 315 313 313 315 323 311 319 324 314 311 316 322 325 318 321 318 317 318 319 318 320 321 321 320 319 319 315 318 314 316 317 317 318 317 317 314 315 312 314
307 306 307 308 309 311 312 315 315 314 314 319 315 311 327 319 309 312 317 323 322 318 318 322 321 321 319 322 324 323 323 321 318 319 316 316 313 313 317 315 316 316 317 312 310 318 310
306 307 306 308 309 311 312 316 315 314 315 321 316 323 327 315 308 305 315 324 319 319 320 321 322 322 321 322 323 323 322 319 313 317 319 315 313 315 319 318 314 317 317 314 310 308 315
307 307 306 307 309 310 312 316 316 315 317 321 315 319 315 314 309 311 318 321 322 319 321 320 320 320 320 323 321 323 323 320 314 314 315 315 315 313 317 317 313 313 315 315 313 310 312
307 306 306 307 308 310 312 315 316 315 317 322 316 313 314 313 315 324 320 321 322 321 320 319 320 321 321 323 323 323 321 319 316 315 317 313 314 315 314 313 314 314 314 314 316 313 314
307 306 306 307 308 309 312 315 316 316 319 319 321 315 312 308 313 320 320 323 321 321 321 321 320 322 320 318 319 321 318 317 317 318 318 310 314 311 317 314 313 314 312 311 311 312 314
307 306 307 307 308 309 312 315 316 316 317 316 318 319 313 311 313 317 316 321 321 319 320 319 319 318 317 320 317 316 315 315 316 318 313 309 306 305 307 309 309 306 310 313 313 315 312
307 307 307 307 308 310 314 315 315 316 316 319 323 318 314 311 310 314 321 320 321 319 321 320 318 317 317 310 310 309 309 314 316 314 310 309 305 300 305 302 304 309 309 312 314 315 313
307 307 307 308 309 311 315 315 315 316 317 320 322 319 313 309 314 320 320 320 319 318 320 321 319 315 311 307 309 312 308 309 309 314 312 307 302 306 303 305 304 308 313 316 315 315 312
307 307 307 308 309 311 314 316 318 317 317 318 321 323 313 318 317 319 319 318 314 315 315 320 317 314 309 300 305 307 309 312 315 318 310 307 299 303 304 300 301 304 313 312 311 312 312
308 308 308 308 309 311 313 316 319 321 320 318 321 324 318 316 317 317 317 318 314 313 312 318 319 316 308 299 300 310 312 310 314 312 308 305 299 301 297 298 304 304 311 311 314 310 311
308 308 308 308 308 310 312 314 318 320 318 319 323 325 320 316 318 320 318 317 316 315 314 315 314 310 303 305 302 304 306 308 310 311 311 311 308 306 304 303 309 307 310 312 310 310 310
308 308 308 308 308 308 310 312 315 321 321 322 323 321 320 316 317 318 318 319 319 315 314 311 314 312 308 307 304 307 308 309 303 311 310 310 307 308 309 309 307 307 310 309 308 310 308

GFSGBSN_925_thetae_006.txt.gz
Theta_e
316 314 315 315 315 314 312 313 316 316 316 315 315 315 313 313 314 314 313 313 313 312 311 310 310 309 312 317 316 316 317 317 314 314 313 312 313 314 315 314 310 311 310 310 308 308 307
315 314 314 314 315 314 311 311 314 314 315 314 314 314 313 313 312 313 313 313 312 311 310 310 309 310 311 317 315 316 315 316 316 314 313 312 313 313 315 311 313 310 308 309 309 307 307
315 314 314 314 315 314 311 312 313 314 314 313 313 313 313 312 313 313 313 314 312 311 310 309 309 310 315 316 316 316 316 315 316 316 313 313 314 314 313 312 309 308 309 309 309 311 311
315 314 313 314 315 312 310 312 313 314 314 313 313 313 313 312 313 313 313 313 311 310 310 309 309 311 318 315 314 317 316 313 315 315 314 315 315 314 312 310 309 309 308 309 310 313 311
315 314 313 313 313 312 310 312 314 314 314 313 313 313 314 312 313 313 312 311 310 309 309 310 311 313 316 314 316 315 315 314 314 314 315 314 314 311 309 309 309 308 310 312 314 312 313
316 315 313 312 313 311 310 313 314 314 313 313 313 314 314 312 312 312 310 309 311 310 310 311 313 315 314 315 316 315 315 315 315 315 315 314 310 311 310 308 311 310 311 311 313 313 313
316 315 314 312 313 310 311 313 314 314 313 313 313 315 314 312 312 311 309 310 310 312 313 310 313 313 317 316 315 314 315 316 315 313 316 313 313 312 313 312 310 312 312 312 312 312 316
316 316 314 312 312 310 311 312 314 313 313 313 314 315 314 312 312 311 312 314 316 318 320 315 316 315 316 317 314 314 317 316 315 315 314 313 314 314 315 316 315 314 314 314 315 315 316
316 316 314 312 312 309 311 312 314 313 313 314 313 315 314 313 312 311 313 314 320 322 318 314 316 316 315 315 314 316 316 316 316 316 314 314 315 315 317 316 318 318 315 316 316 318 316
317 316 314 312 312 309 311 313 314 313 313 313 312 314 314 313 312 314 314 316 326 320 311 314 314 314 316 314 316 315 316 316 315 314 314 318 316 316 316 317 317 320 317 315 317 318 321
318 316 314 312 312 309 311 314 314 313 313 313 313 315 314 314 317 322 324 326 326 316 312 312 315 315 314 317 314 316 316 315 316 316 316 319 318 317 317 318 318 320 315 315 314 314 314
318 316 314 312 310 310 311 314 313 313 313 313 313 315 315 313 317 323 327 324 316 316 315 314 315 315 316 316 316 316 316 315 314 316 315 316 315 316 317 317 317 317 318 317 316 316 317
317 317 313 312 309 310 311 314 313 313 313 313 313 317 314 317 326 328 323 311 314 317 316 315 316 315 316 316 317 316 315 315 317 318 319 316 316 314 316 319 316 316 318 321 321 317 320
316 317 313 312 309 309 312 314 313 313 313 313 313 317 317 324 329 324 316 311 320 319 317 314 316 315 318 318 318 316 316 316 315 316 317 318 317 316 314 317 318 316 318 319 322 319 320
316 316 312 311 309 308 312 313 312 313 313 313 314 316 320 325 325 320 312 311 318 318 316 316 317 318 319 318 317 317 316 315 316 316 320 318 318 315 315 315 317 317 315 314 316 312 317
317 315 312 309 308 308 312 313 312 313 313 313 316 318 323 325 319 316 313 317 324 321 318 317 318 317 319 319 319 318 319 318 318 316 314 317 316 315 315 316 314 316 313 315 312 316 317
317 313 311 308 307 309 312 312 312 313 313 314 320 311 318 325 313 309 311 318 323 321 319 317 317 318 317 318 319 320 319 319 319 319 316 315 314 315 316 316 317 316 315 313 313 310 312
316 312 309 308 307 310 311 312 313 314 313 318 309 311 326 316 310 309 313 321 321 318 318 321 319 318 317 320 322 321 320 319 316 319 317 315 313 313 316 315 315 315 315 310 308 313 308
314 311 308 306 308 310 311 312 313 314 314 321 313 321 323 312 308 304 312 321 321 318 319 320 321 320 320 321 322 321 320 317 312 316 316 313 313 315 316 314 313 317 316 311 308 308 314
312 308 306 307 309 309 311 312 315 313 315 319 316 320 316 309 307 310 315 317 321 318 320 319 320 319 320 322 319 321 321 318 313 315 315 313 312 312 314 314 312 314 316 312 311 308 310
308 307 307 307 308 309 311 313 315 314 317 320 311 316 316 313 313 312 313 319 321 321 319 317 319 320 320 322 322 322 320 317 315 315 315 310 314 313 313 312 313 313 312 314 313 311 312
307 307 307 307 308 310 311 314 315 314 317 318 318 313 307 310 316 320 316 318 320 320 320 320 319 320 319 317 318 320 317 314 313 317 315 308 311 309 317 312 311 313 311 310 312 312 311
307 306 306 307 308 309 311 315 315 315 318 314 317 314 311 307 311 317 315 321 320 318 319 318 318 317 318 320 316 313 311 311 314 316 311 306 306 304 304 307 306 306 308 309 310 309 310
306 306 306 307 308 310 312 315 315 315 318 318 320 316 312 307 307 314 318 320 319 317 319 318 316 316 315 310 309 309 309 312 313 311 308 304 303 299 304 301 304 308 307 309 311 313 311
306 306 307 308 309 310 314 315 315 315 318 322 322 318 312 305 308 315 319 319 318 317 320 320 318 313 309 307 309 313 308 309 308 311 307 304 301 303 304 303 304 307 313 313 313 312 311
307 307 308 309 310 313 315 315 315 315 316 320 321 323 312 312 313 316 318 317 312 314 312 319 315 310 306 300 303 309 312 313 314 318 309 305 298 302 297 301 301 305 308 310 310 312 310
307 308 309 310 312 313 315 316 315 315 316 319 322 324 316 315 316 315 316 317 312 311 311 316 317 315 306 298 300 304 307 309 313 312 308 305 302 299 295 298 303 303 310 310 313 311 309
308 308 309 310 311 313 314 318 319 315 316 319 321 324 317 315 317 319 316 314 314 313 314 314 313 310 302 305 302 303 302 308 309 310 311 311 307 305 300 299 307 305 310 311 310 307 308
308 308 308 309 310 312 313 316 320 320 318 318 322 319 317 314 315 317 317 317 317 313 313 310 314 312 308 305 297 304 307 308 302 310 308 311 307 306 305 306 305 305 309 308 306 307 308

GFSGBSN_925_thetae_009.txt.gz
Theta_e
318 316 317 314 315 314 314 314 312 311 314 314 314 315 313 313 313 313 313 313 312 312 311 310 309 310 311 316 317 315 316 311 311 313 313 313 314 315 317 316 312 312 311 309 309 310 318
319 316 317 315 314 313 314 314 312 311 314 314 314 313 312 312 313 312 313 312 312 311 310 309 309 308 310 316 314 316 316 315 312 313 312 312 314 314 316 314 315 313 310 310 309 309 309
319 317 317 315 313 313 314 314 312 311 312 313 314 313 313 313 311 312 312 313 312 310 309 308 308 309 313 316 315 315 315 315 315 313 313 313 313 315 315 313 310 309 311 311 311 311 311
321 317 317 315 314 313 313 314 311 311 313 313 314 313 313 313 312 312 312 312 311 309 308 308 308 311 317 314 314 315 315 314 315 314 314 314 313 314 314 311 311 311 311 314 312 313 311
323 318 316 316 314 313 313 313 310 311 313 313 313 313 313 313 311 312 312 311 309 308 308 308 310 311 319 314 315 314 314 313 314 314 314 314 314 315 311 313 314 312 313 313 314 314 313
322 321 316 316 314 313 312 312 310 311 313 313 313 313 313 313 313 312 310 308 309 309 310 310 312 315 314 314 317 314 313 314 314 313 314 314 313 314 312 313 315 314 314 313 315 314 318
318 322 317 316 315 313 312 312 310 311 313 313 313 313 314 313 314 311 308 308 311 312 311 314 314 313 314 316 313 313 314 315 314 316 317 314 316 316 315 312 310 312 313 314 313 316 321
312 321 319 316 315 314 312 312 309 312 313 313 313 313 314 314 313 310 309 312 313 317 322 315 316 315 315 316 314 313 317 316 316 317 315 317 317 314 315 316 315 315 316 318 318 317 320
308 316 320 317 315 314 312 311 309 312 314 313 313 313 314 313 311 309 309 313 316 320 321 314 316 316 315 315 315 313 316 315 315 316 315 317 316 315 317 317 319 317 318 316 320 320 319
305 310 319 318 316 315 312 311 309 312 314 313 313 312 314 311 309 311 312 314 315 319 315 315 313 314 314 314 315 314 315 316 315 315 317 319 316 316 317 319 318 321 315 319 321 321 323
307 306 316 319 316 315 312 311 310 312 314 313 313 312 314 311 314 315 321 325 324 314 319 313 314 314 313 315 314 316 315 315 316 316 317 319 318 317 319 317 318 320 317 319 316 317 319
307 306 309 318 317 315 312 311 310 312 313 312 313 312 314 312 313 320 323 325 316 320 321 314 314 315 316 315 315 314 317 315 314 317 317 317 315 316 317 316 316 317 319 319 318 319 324
306 306 307 316 318 315 312 310 310 312 313 312 313 312 313 314 319 327 327 312 319 321 316 315 315 315 316 317 317 316 316 318 320 322 321 317 317 315 315 319 317 319 322 326 326 327 324
305 306 306 315 317 315 312 310 310 313 313 312 313 313 314 315 320 323 314 314 317 317 318 313 314 315 317 317 317 316 316 318 316 317 319 319 321 316 315 318 319 318 321 327 326 327 324
305 306 307 313 317 315 312 309 310 313 312 312 312 313 315 315 317 318 313 315 316 317 316 316 316 317 319 318 318 318 316 317 316 316 322 320 319 314 315 315 317 317 319 316 320 314 321
302 307 306 311 316 315 312 309 310 313 312 312 314 315 317 324 326 314 315 314 319 319 318 315 316 317 320 319 319 318 318 317 317 317 315 318 318 315 315 315 315 317 314 319 318 321 320
301 306 306 311 316 314 310 309 312 312 312 312 317 317 316 325 313 313 317 315 323 321 317 316 317 318 318 319 319 319 319 319 318 317 315 314 318 318 316 318 319 318 317 315 315 315 317
301 306 306 313 315 312 309 309 312 312 312 314 309 313 323 315 313 310 315 318 321 321 317 320 316 317 317 319 321 321 321 319 315 318 319 315 317 320 317 315 315 315 316 315 318 314 313
304 304 307 313 315 311 308 309 312 311 312 316 311 321 319 310 312 310 311 319 321 318 318 319 321 319 319 321 322 321 320 315 312 315 318 315 318 321 319 315 315 317 315 312 311 313 317
304 302 305 312 314 309 308 311 311 311 313 316 318 323 319 309 307 311 313 316 319 317 319 318 319 319 321 322 320 322 321 316 313 316 314 314 313 317 320 316 314 316 317 312 314 318 315
302 303 308 313 311 307 309 312 311 312 314 315 312 317 319 317 311 310 311 315 319 320 318 317 320 319 321 322 321 321 320 316 316 315 315 313 317 314 313 313 313 312 315 313 314 314 319
302 305 310 312 308 307 310 311 311 313 314 314 314 314 308 312 313 312 311 319 320 319 319 319 321 319 319 320 319 322 318 315 315 317 314 310 315 311 316 313 312 314 312 312 314 313 312
305 305 311 308 307 309 310 311 312 314 315 314 315 310 312 306 314 314 315 316 319 319 318 317 318 318 319 319 315 313 312 312 315 317 312 310 311 311 312 308 308 313 312 312 312 311 315
306 310 308 307 308 308 310 311 314 314 316 316 318 312 312 308 311 313 317 319 319 318 320 317 316 318 315 312 310 311 312 313 312 309 308 307 306 305 314 306 314 312 310 310 312 311 311
309 308 307 307 307 309 310 313 314 314 316 320 320 316 310 306 309 313 317 318 318 317 319 319 317 313 311 310 314 315 314 313 311 309 307 306 307 307 316 312 308 309 308 314 315 314 313
307 306 306 307 308 309 310 313 315 314 316 319 321 317 311 310 311 312 318 316 315 315 315 317 313 308 306 305 310 316 319 315 313 317 309 306 303 312 307 311 312 310 306 312 312 318 312
306 306 308 309 309 310 313 314 315 315 315 319 321 318 316 315 315 315 318 318 313 314 316 314 314 314 306 306 311 314 315 310 314 314 312 312 308 311 302 314 310 306 309 310 316 316 311
307 309 310 311 313 314 314 314 315 315 316 319 321 322 318 316 316 317 313 314 314 315 318 315 316 314 308 312 313 311 313 312 312 311 313 315 313 312 304 310 315 305 311 316 315 308 310
309 310 311 312 312 313 316 316 315 315 316 319 320 319 319 315 316 316 315 315 316 313 315 311 317 314 312 311 305 306 311 309 307 317 309 314 312 314 310 313 308 306 311 309 308 309 310

GFSGBSN_925_thetae_012.txt.gz
Theta_e
323 320 319 317 316 315 314 313 314 314 313 312 313 313 313 313 312 312 312 312 312 312 310 309 309 308 312 319 318 316 314 311 312 313 315 316 316 316 315 317 317 318 318 315 315 321 326
323 323 320 319 316 316 314 314 314 314 313 311 313 312 313 313 312 312 311 311 312 311 309 309 308 308 315 319 316 317 315 312 314 313 315 316 316 317 317 319 318 317 315 314 314 319 319
315 324 322 319 316 316 314 314 313 314 314 311 312 312 313 312 312 312 311 311 312 310 309 308 307 310 316 318 315 319 317 316 315 315 318 317 316 316 318 319 314 315 314 314 314 319 318
313 319 323 321 317 316 315 313 313 314 313 311 313 312 313 312 312 310 311 311 311 309 308 307 308 311 320 316 316 317 316 317 316 314 316 316 316 317 318 314 314 315 316 317 315 317 315
311 313 321 323 319 316 315 314 313 313 313 311 312 313 312 312 311 311 311 310 310 308 308 308 312 315 320 316 316 314 316 315 316 316 316 314 316 318 316 317 315 315 315 316 315 318 317
308 313 316 322 321 316 316 314 313 312 312 311 312 312 312 312 311 311 310 309 308 308 309 311 314 321 320 318 318 314 314 315 316 317 317 317 318 319 318 316 316 315 314 315 315 320 317
306 311 313 321 322 317 316 314 313 312 311 311 313 312 312 313 312 311 309 311 315 318 314 319 317 318 315 316 315 315 315 317 317 318 320 318 318 318 317 316 316 316 317 316 318 321 323
305 308 312 318 321 319 315 315 313 311 311 311 313 313 313 313 312 310 310 316 318 321 322 319 318 317 316 316 318 316 317 319 320 318 319 319 318 318 319 317 317 317 316 320 320 321 323
305 306 309 313 320 321 316 315 314 311 310 311 313 313 313 313 311 309 312 314 319 318 326 320 320 317 318 318 317 316 318 319 319 319 319 319 320 319 320 320 319 320 320 322 321 321 323
305 305 308 308 317 320 318 315 314 312 310 311 313 312 313 312 310 313 314 313 313 315 321 317 317 318 317 318 317 316 318 319 319 320 321 321 319 320 321 321 321 322 320 321 322 322 321
305 305 307 307 309 319 320 315 315 312 310 312 313 312 313 311 316 315 322 323 322 320 320 317 316 315 317 318 318 319 317 320 319 320 322 322 321 321 322 322 321 323 321 323 322 323 323
304 304 307 306 306 317 319 316 315 312 310 312 313 312 312 309 314 318 320 324 322 327 319 317 317 318 319 318 318 320 320 319 319 321 322 321 319 321 321 320 320 321 322 322 322 323 324
304 303 305 307 305 311 318 318 315 312 310 312 313 312 312 313 318 322 325 324 323 321 317 317 317 318 319 319 320 321 322 322 322 323 323 322 321 320 320 323 321 323 323 324 323 325 325
302 304 304 306 306 307 316 318 315 312 310 312 312 312 312 315 317 319 319 321 319 317 318 316 317 318 320 320 320 321 322 322 321 322 322 320 323 320 319 322 322 324 323 323 322 326 321
302 304 304 305 305 307 314 318 315 312 310 313 311 310 311 315 314 319 321 328 320 320 320 318 318 319 321 321 319 322 322 322 321 322 320 321 321 318 319 320 320 321 323 322 325 322 326
301 302 303 304 304 306 312 317 315 311 310 312 312 312 317 318 317 318 325 322 319 323 320 318 317 318 320 321 319 320 322 321 322 321 321 322 322 319 319 319 319 321 320 323 324 325 323
300 300 302 304 305 307 312 316 314 310 311 312 316 320 323 322 322 323 327 321 321 325 323 319 318 319 319 322 321 319 320 321 321 320 320 320 322 322 320 322 322 321 320 318 320 322 317
299 300 300 302 305 306 311 315 313 309 312 312 318 322 321 319 323 321 322 319 323 324 321 321 320 320 321 322 322 323 321 322 321 321 323 320 323 326 322 319 319 320 320 318 318 318 320
300 299 299 301 304 306 311 314 311 309 311 313 319 325 318 314 325 327 319 320 324 322 321 323 322 323 323 325 326 325 324 318 317 321 323 321 324 325 322 321 319 321 320 317 318 321 320
299 300 301 302 304 306 312 314 310 310 312 317 321 328 326 317 317 320 319 320 320 321 322 322 324 324 325 325 324 326 325 319 318 320 313 316 322 324 326 321 321 322 320 318 317 320 318
298 300 300 303 303 305 312 313 309 311 312 317 322 323 322 326 320 318 319 319 319 323 322 322 324 325 326 327 326 326 324 319 320 317 319 321 323 320 318 317 317 318 319 319 318 318 318
300 300 302 303 303 308 312 312 308 312 312 317 322 323 320 322 317 317 316 318 318 322 323 323 325 324 325 327 325 327 324 322 322 321 322 318 324 319 320 317 316 318 317 319 319 318 318
300 301 303 302 302 308 313 309 309 311 313 318 319 315 321 314 318 318 317 318 318 324 322 321 324 325 326 324 322 322 320 320 320 323 322 321 320 318 320 315 316 321 318 317 317 318 318
300 302 302 303 304 307 312 308 310 311 314 319 321 319 322 323 320 318 316 316 323 324 325 321 323 325 320 317 318 319 319 318 317 315 315 316 317 316 322 313 330 315 313 314 316 316 316
301 302 304 308 308 310 308 309 310 312 314 320 320 320 321 322 321 317 317 316 321 322 324 323 321 319 317 319 324 323 325 324 320 315 314 313 317 318 329 318 316 312 311 313 316 314 316
304 302 304 307 310 307 308 309 311 313 314 320 322 316 322 323 321 317 318 321 325 326 325 319 316 314 313 321 325 328 327 322 321 321 315 312 312 320 317 333 334 315 311 315 315 316 315
305 307 307 309 307 308 309 310 312 314 314 321 321 317 322 321 319 320 320 322 323 325 327 320 317 319 314 323 335 331 326 317 320 320 321 321 319 325 320 328 318 313 312 314 316 316 316
308 309 307 306 307 308 309 311 313 314 314 321 321 318 325 325 320 321 319 321 321 325 328 321 322 320 320 329 333 325 329 320 318 317 319 321 323 324 316 326 326 310 314 320 318 317 315
307 306 306 307 308 309 310 313 314 314 314 321 323 319 319 324 322 318 317 317 319 322 323 321 325 323 324 326 323 321 321 314 321 325 314 319 319 321 318 319 314 312 317 316 314 316 316

GFSGBSN_925_thetae_015.txt.gz
Theta_e
316 320 324 322 320 319 316 316 314 313 314 314 313 311 313 313 312 312 312 312 312 311 311 311 310 309 313 322 322 319 311 312 311 315 316 316 317 317 317 317 317 319 321 320 323 326 325
313 315 319 324 322 320 317 316 314 314 313 314 313 311 313 313 313 312 311 311 311 311 311 310 308 308 317 323 318 322 317 314 316 317 315 316 317 317 316 317 319 319 320 318 321 323 324
310 313 316 321 324 322 319 316 315 314 313 314 313 311 313 312 312 312 311 311 311 311 310 309 307 311 318 321 318 321 317 316 316 316 317 317 317 318 319 320 319 318 317 319 321 322 323
307 309 313 315 321 324 320 317 316 314 313 314 312 311 312 312 312 311 310 311 311 311 310 308 307 314 321 319 318 319 320 319 317 317 318 318 318 318 320 318 318 317 318 320 320 322 322
306 307 309 313 315 323 322 318 316 314 313 313 312 311 312 312 311 310 311 310 310 309 308 309 314 318 323 318 318 317 318 318 319 318 317 317 318 319 320 320 318 317 317 318 319 320 322
306 307 306 309 314 320 323 319 316 315 313 312 312 311 312 311 311 311 310 309 311 309 312 313 316 323 323 319 319 316 317 318 320 319 319 319 320 321 321 320 318 318 318 318 319 319 318
305 305 307 308 311 315 322 322 316 315 313 312 311 311 312 311 311 311 310 313 317 321 317 321 320 320 318 318 318 317 316 317 320 321 321 320 320 320 319 319 318 318 317 316 317 318 317
304 305 306 305 311 314 319 322 318 315 314 312 311 311 313 312 312 311 311 317 320 324 326 319 318 318 318 318 319 317 317 319 320 320 321 321 321 319 319 318 317 317 317 319 319 319 321
305 305 305 305 306 312 317 320 321 316 314 312 311 311 312 312 311 310 314 316 321 321 328 321 319 319 319 319 318 318 318 319 319 320 320 321 320 319 319 317 317 319 317 320 320 321 322
305 305 304 304 304 308 313 320 321 316 314 312 311 311 312 312 311 315 316 315 316 317 327 320 319 320 319 319 318 318 318 319 319 320 319 322 321 319 318 319 319 321 321 321 320 323 322
302 305 304 304 305 306 308 317 320 317 315 312 311 312 312 314 321 317 324 323 320 325 326 319 319 318 319 318 317 319 319 319 318 320 319 322 321 321 320 322 322 325 322 323 322 322 324
301 304 305 304 304 306 307 310 319 319 315 312 310 313 312 311 313 320 323 328 327 332 323 318 318 318 319 319 318 319 318 319 320 320 320 322 322 322 322 322 322 323 323 324 323 323 325
302 303 304 304 303 305 307 307 316 319 315 312 310 313 311 314 318 321 326 328 330 325 319 317 317 318 319 318 318 319 319 319 318 319 321 321 321 322 322 323 323 322 323 324 323 325 324
301 303 302 305 302 302 306 305 311 318 315 312 310 312 311 315 317 324 329 330 326 319 320 317 316 318 319 318 318 318 318 318 319 322 321 321 325 322 322 323 322 323 322 323 322 323 321
299 301 302 303 304 303 305 307 308 317 315 311 312 311 313 313 316 321 330 332 325 317 319 317 317 318 319 319 318 320 320 319 319 320 321 321 321 321 322 322 321 322 323 323 325 325 325
298 300 301 303 303 304 304 306 308 316 314 310 313 313 315 316 317 323 329 326 322 321 320 318 317 318 320 320 318 319 321 321 323 322 323 321 322 321 321 322 322 323 322 323 321 323 323
298 299 301 302 302 303 303 305 308 314 313 310 316 319 317 319 320 325 328 324 320 322 321 319 318 318 320 320 319 319 320 322 323 323 322 320 320 324 322 322 321 323 321 321 322 324 323
298 298 301 301 302 303 304 305 307 313 313 311 318 322 323 323 324 326 327 322 319 323 324 321 321 319 320 320 321 320 319 320 323 323 320 320 322 326 324 322 322 323 323 322 322 320 321
299 298 299 301 301 302 304 305 307 313 311 313 322 324 325 324 330 333 323 321 320 323 323 323 320 320 319 320 320 320 320 323 323 324 321 324 322 326 324 323 321 320 320 321 319 322 320
298 298 300 301 300 301 303 305 307 312 311 315 321 326 327 324 326 325 324 322 322 323 323 322 320 323 323 324 324 325 325 323 322 323 313 318 322 323 325 323 323 324 320 320 320 322 320
297 301 301 300 300 300 302 305 307 312 310 315 321 323 324 329 329 324 322 321 320 323 323 324 325 323 322 324 325 326 326 323 322 318 320 323 324 322 322 322 320 320 320 320 320 319 321
298 299 299 300 300 301 303 304 309 312 310 315 322 324 324 327 324 323 321 321 320 322 324 325 324 322 322 324 325 324 327 326 326 324 325 323 326 323 325 322 320 320 319 318 319 319 318
298 297 298 300 300 302 302 303 308 313 310 316 321 321 326 325 327 323 324 320 320 323 326 324 323 325 325 327 327 326 325 325 325 327 327 325 327 323 321 320 321 324 321 319 318 318 318
299 298 299 300 301 303 302 303 308 311 311 317 321 322 324 328 327 322 320 319 320 323 325 324 325 325 325 322 322 323 322 321 320 321 324 325 324 323 322 318 327 317 317 316 318 318 318
299 299 299 301 303 303 302 302 309 311 311 317 323 323 324 332 322 320 318 318 320 324 326 326 325 324 322 324 326 326 326 327 322 318 317 319 322 323 330 319 317 315 314 314 316 316 315
298 299 300 302 303 302 301 305 311 310 312 314 324 324 324 326 323 318 318 317 326 328 328 324 321 321 321 327 329 327 327 324 325 324 317 316 319 321 320 330 331 319 315 316 317 315 315
299 301 301 302 303 303 302 306 312 309 311 312 325 320 319 319 318 318 319 319 320 325 328 324 323 322 320 330 334 330 326 322 323 323 324 323 324 327 324 328 322 316 314 316 316 319 317
301 301 301 303 304 304 306 308 310 309 311 312 326 325 320 319 322 321 319 319 320 322 331 326 325 325 325 330 335 330 332 325 323 321 323 323 325 327 325 327 326 313 316 319 322 317 317
299 303 302 303 306 308 309 309 308 310 312 315 325 323 326 324 326 322 322 321 321 323 326 325 325 326 327 329 331 332 328 321 327 326 319 323 321 324 320 321 317 315 315 316 317 317 317

GFSGBSN_925_thetae_018.txt.gz
Theta_e
312 313 317 320 324 324 321 319 317 316 315 313 314 314 312 311 313 313 313 312 311 311 311 311 310 308 313 322 323 319 312 314 311 315 318 317 316 316 317 318 317 317 320 321 327 327 328
307 310 312 315 318 323 324 321 319 316 315 314 313 314 312 311 312 313 312 312 311 311 311 310 309 309 316 323 319 321 314 313 314 315 318 316 317 317 317 317 317 318 320 321 323 327 326
309 308 309 311 316 319 323 324 321 317 316 314 313 314 312 311 311 312 311 311 311 311 311 310 308 311 317 320 320 321 317 315 317 317 317 317 318 318 319 318 319 319 319 319 322 323 326
307 307 307 308 311 315 319 323 323 319 316 314 313 314 312 312 311 311 310 310 310 310 310 310 309 314 320 321 320 320 320 319 317 317 316 319 319 319 319 321 319 318 319 320 320 321 324
307 306 306 306 307 310 315 321 323 321 317 315 313 313 312 312 311 311 311 310 311 310 309 310 316 320 323 320 319 318 319 321 320 318 318 318 318 320 320 320 319 318 318 320 321 321 322
306 307 306 306 306 307 312 315 322 323 318 316 314 313 312 311 312 312 311 310 312 310 313 313 316 320 323 320 319 317 318 319 320 320 319 319 319 320 321 320 319 318 318 319 320 319 321
307 306 305 306 307 306 310 313 318 323 319 316 314 313 312 311 312 311 311 313 317 319 317 319 321 320 318 319 319 318 318 319 321 320 322 321 321 321 322 321 319 319 319 319 318 320 319
304 306 306 305 304 305 306 313 314 321 321 316 314 313 311 312 311 311 311 318 322 324 327 320 316 320 319 319 319 319 317 319 322 322 321 319 320 320 321 320 320 318 319 318 318 317 317
303 304 305 306 305 306 304 311 315 318 322 317 314 312 311 311 312 311 314 315 319 319 326 323 317 318 319 319 319 318 318 319 320 320 321 322 323 322 319 320 318 318 320 320 319 318 316
303 303 304 305 305 305 305 306 312 317 320 318 314 312 311 312 312 317 317 315 313 317 326 323 319 319 319 320 318 318 318 319 321 321 320 322 322 321 319 318 318 321 322 321 320 322 321
302 302 303 303 306 304 305 304 308 315 320 318 315 312 311 312 319 318 324 317 321 324 330 321 320 319 319 319 317 318 319 319 320 321 321 322 322 320 319 323 322 322 322 322 321 320 325
301 302 302 302 302 306 302 304 305 310 317 319 315 312 311 312 313 319 322 328 326 335 328 320 319 319 318 318 317 318 319 318 319 318 322 321 321 322 323 322 322 323 323 323 320 322 330
298 299 301 301 301 304 304 303 305 308 313 318 315 312 311 315 318 316 318 329 331 327 320 319 319 318 318 318 318 317 319 318 319 319 323 320 319 320 322 319 321 320 320 323 331 331 330
297 298 301 302 303 302 305 303 304 307 309 317 315 312 312 314 317 319 327 334 328 320 321 317 317 318 318 318 318 317 319 317 318 318 319 324 326 321 320 319 323 324 319 327 331 331 327
297 298 301 302 303 303 304 303 303 307 307 316 313 311 313 314 315 321 329 334 327 321 320 319 317 317 318 318 318 318 318 317 318 319 325 327 325 323 322 321 320 319 322 322 323 328 329
296 297 299 300 302 304 304 304 302 305 308 314 313 313 313 315 316 320 330 329 324 322 319 319 317 317 318 319 318 319 318 319 318 320 323 326 327 324 322 321 321 321 321 325 323 325 324
296 297 299 299 300 301 304 305 304 305 310 314 314 316 315 316 318 324 330 328 325 322 320 320 317 317 318 320 318 318 320 322 322 322 321 320 324 323 322 322 318 322 321 321 320 329 334
296 298 298 299 298 301 303 303 305 305 309 313 316 318 320 320 320 319 329 324 321 322 321 321 320 318 318 321 320 319 319 321 322 321 322 320 320 330 323 322 321 322 324 321 335 325 331
296 297 297 298 299 299 303 303 305 306 308 312 318 321 321 321 320 326 325 324 323 322 323 323 321 320 319 320 321 320 319 326 325 322 322 322 322 327 324 324 323 322 319 320 322 328 330
296 297 296 297 299 298 302 303 305 306 308 314 318 323 326 325 318 323 327 323 323 322 321 322 322 321 320 319 320 321 321 324 323 324 315 323 322 322 328 323 324 325 321 319 320 332 327
297 296 296 298 299 299 302 302 304 306 307 312 321 323 325 328 326 325 327 323 322 322 321 323 321 319 322 323 322 323 323 326 324 318 321 323 324 322 321 321 323 323 321 321 319 321 322
296 296 298 298 298 301 302 302 305 305 306 311 321 323 324 324 323 326 327 326 323 321 323 324 324 321 323 324 323 324 324 328 326 325 324 324 328 327 327 323 322 322 321 321 319 319 319
298 298 298 298 299 301 301 301 302 306 306 312 316 321 324 324 325 328 329 327 324 323 323 323 323 323 323 327 326 327 328 328 325 328 327 329 333 329 327 321 322 323 324 321 321 319 319
296 298 298 301 300 302 301 300 302 306 305 312 317 323 325 327 325 327 327 323 322 323 326 324 325 326 327 324 325 325 324 324 325 325 326 330 329 330 331 320 326 317 318 317 318 318 318
297 297 299 300 300 301 302 303 302 302 308 311 318 322 325 327 327 325 326 324 323 322 326 325 327 327 326 326 328 327 331 325 322 320 321 324 328 330 332 325 319 317 316 315 316 316 317
298 299 299 298 299 300 301 302 301 302 304 309 313 318 327 328 330 323 323 324 324 331 329 326 324 326 326 334 336 329 331 324 326 324 318 318 325 331 325 331 330 322 317 316 316 318 316
299 299 299 298 299 300 301 302 302 303 303 307 312 315 325 327 325 322 323 323 323 330 330 327 324 324 325 335 332 337 333 322 329 328 324 326 328 326 327 329 328 318 316 316 319 324 318
299 298 297 299 300 301 303 302 302 304 304 307 311 314 321 325 323 323 322 321 323 329 332 328 327 327 335 333 336 336 334 331 328 322 324 326 330 327 331 327 326 315 316 319 324 320 318
297 297 298 300 301 302 303 302 303 304 307 308 311 313 319 329 327 325 324 323 324 323 328 328 328 328 331 332 334 337 326 322 327 331 321 327 326 331 325 327 321 316 316 317 316 317 317

GFSGBSN_925_thetae_021.txt.gz
Theta_e
309 309 311 314 319 320 323 323 323 320 318 316 315 313 313 314 312 310 312 312 312 310 310 310 311 308 311 318 323 321 312 315 315 312 314 316 317 315 314 314 314 315 316 325 324 326 326
308 307 306 308 313 318 320 322 323 323 320 317 315 314 313 313 311 311 310 311 312 310 310 311 310 308 313 323 322 320 312 313 311 315 317 318 316 314 314 315 314 316 316 326 326 326 325
309 309 308 307 306 310 316 320 321 323 322 319 316 314 313 313 311 312 312 312 312 310 311 311 310 309 315 317 320 318 316 312 314 314 315 317 316 317 316 318 319 317 317 317 323 327 327
307 307 307 307 307 306 312 317 318 321 323 321 317 314 313 313 311 311 312 313 311 311 310 310 309 311 318 317 320 320 317 316 316 317 317 318 318 318 317 317 318 317 317 319 320 324 325
307 307 307 307 306 306 306 312 317 320 322 322 318 315 313 312 311 311 312 312 310 311 309 309 312 313 324 321 320 318 319 319 317 317 317 317 317 318 317 318 317 316 315 319 320 320 322
306 307 307 306 306 306 306 306 313 318 320 322 320 316 314 312 311 311 312 312 311 309 314 311 312 316 318 322 321 319 318 320 319 319 318 318 316 317 316 317 319 317 317 317 319 318 319
306 306 307 307 307 306 306 306 308 316 319 321 321 316 314 312 311 312 312 316 313 316 313 318 318 318 319 319 319 318 318 318 319 319 319 317 317 318 319 319 319 318 316 317 316 317 318
304 305 305 307 307 306 304 304 305 312 316 320 321 316 314 312 311 311 311 314 318 317 322 319 317 317 316 319 318 318 318 318 320 320 321 318 319 320 320 319 319 319 320 318 317 316 315
304 304 304 305 306 306 305 303 302 309 316 318 321 316 314 312 311 311 312 314 311 315 322 324 323 319 316 319 319 317 315 316 320 321 321 320 322 321 322 322 320 320 321 318 317 315 314
302 303 303 303 304 306 305 304 306 305 314 317 320 316 314 311 311 313 316 317 311 313 324 323 324 317 316 318 319 318 317 317 319 321 320 321 321 322 322 322 319 319 321 321 320 319 317
301 301 302 303 303 304 305 305 304 305 310 316 319 316 314 310 315 317 319 323 317 319 330 320 321 318 318 318 318 316 317 318 320 321 320 321 322 322 322 321 319 321 320 320 322 320 323
302 301 299 301 303 303 303 306 304 305 306 312 318 317 313 311 310 316 319 322 326 330 330 323 320 318 318 318 318 316 317 318 319 320 320 319 319 322 321 321 319 322 322 322 322 319 322
302 301 300 300 301 303 301 302 305 304 304 310 317 316 313 311 316 320 320 322 328 326 321 321 319 319 318 318 317 316 318 317 316 320 321 321 320 320 322 321 320 321 319 323 322 325 324
299 299 300 299 300 301 303 301 304 304 303 308 314 316 313 311 312 317 323 328 331 323 322 319 319 319 318 317 317 317 317 316 315 316 321 323 324 322 321 319 322 322 320 323 327 329 328
298 299 300 299 298 299 301 301 301 304 303 307 311 313 312 312 311 315 325 329 324 325 318 321 317 318 317 317 317 316 315 317 315 315 321 324 325 323 323 323 320 320 322 322 327 327 329
299 300 299 298 298 299 299 302 301 304 303 308 312 312 313 312 311 316 325 325 326 322 322 320 320 317 317 317 318 316 316 316 317 316 321 325 325 323 323 323 320 320 319 322 322 325 323
298 299 298 297 296 297 301 303 302 304 303 308 313 315 314 312 315 321 322 324 324 323 322 323 320 317 317 318 318 318 318 318 318 322 322 322 325 327 324 323 319 320 319 319 319 321 323
297 297 298 297 297 297 300 303 303 304 304 309 315 317 313 314 317 317 319 321 321 324 323 323 320 318 317 320 319 317 319 326 321 321 324 322 323 322 324 320 319 320 323 323 317 319 319
296 296 297 297 297 297 300 300 304 304 305 309 316 317 315 314 316 317 317 322 323 324 324 323 322 320 321 319 322 318 324 324 324 322 321 322 319 317 318 320 322 321 320 318 323 318 319
296 296 296 297 297 297 300 300 303 304 305 310 316 318 320 318 313 316 316 320 324 323 324 323 322 322 321 320 320 322 325 324 323 321 316 322 322 318 318 320 322 323 321 320 318 316 317
295 295 296 296 297 298 299 299 301 303 306 310 315 316 320 323 320 315 316 320 324 325 322 322 322 322 321 319 320 320 326 324 324 318 321 321 320 321 322 323 322 322 323 322 319 319 318
295 295 295 295 297 297 298 299 299 303 305 309 316 317 320 319 320 320 318 322 324 322 322 322 323 321 319 320 323 322 326 325 324 322 321 321 324 323 323 322 321 320 319 319 319 319 317
296 296 296 296 296 298 299 298 298 303 306 308 309 314 320 321 321 319 317 323 324 322 322 320 323 323 322 325 323 326 324 325 325 323 322 322 318 317 322 316 316 313 315 318 319 318 318
296 296 296 297 297 298 299 299 301 303 305 307 309 316 321 321 322 318 319 322 322 322 324 322 322 322 324 322 321 320 320 325 326 325 324 320 320 314 316 313 310 315 316 315 317 316 314
297 296 297 297 298 298 299 299 303 303 306 305 308 315 321 314 320 317 320 323 325 324 323 327 327 324 322 324 322 322 316 313 320 320 323 323 315 318 314 315 315 315 316 317 315 315 314
297 298 299 298 298 298 298 299 302 303 305 304 305 307 317 323 322 318 320 323 325 323 326 327 323 323 325 323 315 322 321 320 321 320 318 317 315 312 314 316 312 316 315 315 315 314 315
297 297 297 298 300 299 300 302 301 302 303 305 306 307 311 325 321 319 320 324 323 325 324 325 323 323 324 312 319 315 318 322 323 320 316 313 312 312 310 310 315 319 315 314 311 313 316
297 296 297 299 301 301 301 301 301 301 303 303 305 307 313 321 320 321 320 322 326 323 322 326 322 321 316 320 317 316 314 316 317 322 318 316 316 312 314 317 319 316 314 312 316 315 314
297 297 298 298 299 299 300 301 302 301 302 303 304 305 309 314 321 324 323 324 325 323 323 322 322 324 323 321 318 315 315 314 316 316 320 319 319 316 317 315 316 314 313 316 313 313 314

GFSGBSN_925_thetae_024.txt.gz
Theta_e
310 309 309 310 314 317 320 321 322 322 323 321 318 316 314 313 313 312 311 311 312 312 311 311 311 308 310 316 320 320 314 314 315 315 313 313 316 316 314 313 312 312 318 322 324 326 326
309 309 307 306 304 308 314 319 320 322 321 323 320 317 315 313 312 312 311 312 312 311 310 311 311 308 314 316 321 318 313 313 313 312 315 314 316 314 313 314 313 314 322 323 325 325 324
310 309 308 308 307 306 307 315 319 320 321 321 322 319 315 314 312 312 310 312 312 311 310 310 310 309 312 310 320 317 315 311 311 312 314 315 316 316 316 316 317 317 321 324 326 324 324
306 308 308 308 308 307 306 306 315 318 318 320 321 321 316 314 312 311 310 312 312 311 310 310 309 311 314 312 318 317 316 314 314 314 314 316 316 316 317 316 316 316 317 322 324 325 324
307 306 308 308 307 307 306 305 308 316 317 319 320 322 317 315 313 311 310 312 312 310 310 310 311 314 320 318 320 320 319 317 316 316 315 316 316 316 315 317 315 314 314 317 323 324 324
307 306 306 307 307 307 307 306 304 309 315 318 320 321 319 315 313 311 310 312 313 313 312 311 311 312 314 318 320 320 318 319 317 316 317 317 313 315 314 315 317 317 316 317 318 317 322
305 306 306 305 306 307 307 307 306 304 312 316 319 321 319 315 313 311 311 313 314 316 311 312 311 313 314 316 318 318 318 317 317 317 317 317 315 316 316 316 318 319 318 315 314 315 317
304 305 305 305 306 307 307 307 307 306 307 315 317 320 319 315 313 311 311 312 315 314 317 317 317 316 316 316 315 317 318 317 318 318 319 317 318 317 319 320 320 319 318 317 316 315 314
304 304 304 305 305 305 306 307 306 304 304 312 316 320 319 315 313 310 311 313 315 313 318 321 321 321 320 316 316 317 315 316 319 319 318 317 318 320 321 320 321 320 319 320 318 313 313
305 303 303 303 304 305 305 305 306 305 304 308 315 319 318 314 310 312 313 318 319 313 321 322 322 322 315 315 317 317 316 315 318 319 318 318 319 320 321 321 320 319 318 320 319 316 314
305 305 303 302 303 304 304 303 307 305 305 306 314 318 318 314 313 316 318 318 315 318 316 317 322 319 314 316 317 316 317 316 318 319 317 319 320 320 321 321 318 319 318 319 320 318 319
301 302 304 303 301 302 303 303 303 305 305 305 311 318 317 313 312 311 313 317 319 323 322 324 318 316 316 316 317 316 315 316 317 319 318 317 318 320 320 321 319 319 321 320 320 319 320
299 301 303 303 302 301 301 303 303 304 305 304 308 316 316 313 311 314 319 320 324 325 318 322 318 317 316 317 317 317 316 315 318 319 319 319 319 319 320 320 318 320 317 319 320 320 320
299 301 304 303 303 301 299 301 302 303 305 304 306 313 315 315 313 316 322 327 326 321 323 320 318 317 317 317 317 316 315 315 314 316 318 320 321 322 321 320 320 319 318 318 322 324 323
298 300 302 303 303 301 299 299 301 301 303 304 305 311 313 315 313 313 323 328 320 324 319 319 318 318 317 317 316 315 315 315 314 313 318 322 323 321 321 322 321 321 319 319 323 324 326
298 299 301 301 301 301 300 299 301 302 302 304 307 312 313 315 314 312 323 322 322 322 322 319 318 317 317 316 316 314 314 315 316 314 317 321 323 322 322 321 320 321 318 321 320 326 327
299 299 300 300 300 300 300 299 299 300 300 304 308 313 313 314 312 314 321 319 320 320 321 323 322 320 316 316 316 315 315 315 315 320 320 321 319 322 323 322 322 320 318 318 319 317 320
299 298 299 298 299 300 299 298 297 298 302 303 309 313 313 313 313 314 321 319 315 320 321 324 323 321 316 316 317 317 317 317 317 320 321 320 321 320 324 320 320 319 319 318 315 317 315
299 298 298 299 299 300 299 297 296 297 302 305 310 314 313 314 314 314 316 319 317 318 322 323 322 321 318 318 317 318 319 323 321 320 321 320 318 316 318 317 320 319 318 320 318 313 317
299 298 298 299 299 298 298 296 297 300 303 305 311 315 315 314 313 311 315 318 319 316 318 321 323 322 320 319 320 322 324 322 322 320 319 319 317 315 316 315 317 322 321 319 318 315 316
299 298 298 298 298 298 296 296 298 299 303 305 311 313 313 315 315 312 313 316 318 318 320 321 321 322 322 319 320 319 324 323 322 318 320 318 319 318 317 321 321 320 320 321 319 317 316
299 298 298 298 298 297 297 296 297 298 303 305 311 315 314 315 314 313 313 315 316 316 319 320 322 322 319 318 318 320 324 323 321 321 319 319 319 321 321 318 319 320 318 318 318 318 317
298 297 297 297 297 297 297 297 296 299 301 305 306 310 315 314 316 315 313 314 314 314 318 317 319 320 319 319 320 320 321 321 321 320 320 319 316 315 319 314 314 315 315 316 317 317 317
298 297 297 296 296 297 297 297 297 300 300 305 306 309 316 317 319 318 315 314 314 316 317 319 318 320 321 318 317 316 317 321 323 323 321 316 315 310 314 310 314 317 314 314 314 313 313
297 297 296 296 296 296 297 297 299 299 299 302 307 308 315 312 319 319 317 314 315 316 321 319 323 320 319 319 318 318 314 315 320 319 321 321 314 316 312 313 314 315 314 313 313 315 313
296 296 296 296 297 297 298 298 298 297 299 302 304 306 310 315 318 319 318 315 315 319 319 325 323 320 322 316 312 318 316 316 319 318 315 316 311 313 312 313 311 312 314 314 311 314 314
296 297 297 297 297 298 298 298 298 298 299 304 303 305 306 314 319 318 317 317 315 321 320 324 323 324 318 311 313 314 317 318 319 317 314 310 309 309 304 307 310 312 314 311 310 309 314
297 297 298 298 298 298 297 299 298 300 302 304 304 304 307 312 315 320 315 315 318 321 322 321 322 321 315 317 317 313 310 315 316 318 316 314 313 309 314 312 314 315 313 311 309 313 312
297 298 298 298 297 298 298 298 299 301 303 304 304 304 305 308 313 313 314 316 318 318 321 319 321 322 323 319 315 313 314 308 312 317 317 315 313 313 313 313 313 312 313 314 311 311 311

GFSGBSN_925_thetae_027.txt.gz
Theta_e
310 310 309 310 310 311 314 316 319 320 322 322 322 321 318 315 314 312 312 310 311 312 312 310 310 308 310 311 312 319 314 314 314 315 313 312 315 315 314 312 311 311 312 313 323 324 325
309 310 309 309 308 306 305 309 313 318 320 322 321 322 321 317 314 312 311 311 311 312 312 310 309 308 312 307 319 318 314 314 314 313 311 313 315 314 314 312 312 313 319 323 324 324 324
308 308 309 309 308 308 307 306 308 314 318 320 320 321 321 318 315 313 312 311 311 312 312 310 309 309 311 307 317 317 314 313 312 312 313 315 316 315 315 315 316 317 324 325 325 324 323
308 307 307 308 309 308 308 307 305 308 315 318 319 320 321 320 316 314 312 310 311 312 311 310 309 311 314 310 312 317 317 314 312 311 312 314 315 314 315 315 315 315 317 320 321 324 324
306 307 307 307 306 308 308 307 306 305 309 316 318 319 320 321 317 314 312 310 311 312 311 310 311 313 317 314 316 319 320 316 315 314 314 315 315 314 313 315 313 312 315 316 324 324 323
305 306 306 307 306 306 308 308 307 306 305 311 315 318 319 320 318 314 312 310 312 312 312 311 310 310 310 315 316 319 319 319 316 315 315 315 311 314 312 313 316 317 316 315 318 322 324
305 306 305 306 307 306 306 307 307 307 306 305 311 316 319 320 318 314 311 311 312 315 311 309 308 308 310 315 316 317 317 316 317 316 316 315 314 315 316 315 317 318 318 316 315 314 321
305 305 305 305 305 306 306 307 307 307 307 306 310 315 319 320 317 314 310 311 312 313 315 314 315 313 314 316 318 315 316 316 317 317 318 316 318 316 317 318 319 320 319 318 316 313 316
302 303 306 305 304 305 305 306 306 307 307 304 306 314 317 320 315 313 310 312 316 315 312 316 318 319 319 317 318 314 314 315 317 317 318 316 317 317 319 319 320 319 319 317 318 312 313
299 302 303 306 304 304 304 305 305 306 307 305 302 313 317 318 313 311 314 317 315 316 316 318 322 320 319 315 315 316 314 316 317 318 316 316 317 319 320 320 319 320 317 317 318 313 314
298 301 302 302 306 304 303 303 305 305 306 306 302 311 316 316 312 315 317 316 313 316 311 312 321 319 313 315 315 316 314 315 315 318 316 318 319 319 320 319 318 318 317 318 318 317 316
300 299 301 301 302 305 303 303 304 304 305 306 305 310 316 313 313 312 314 317 318 317 315 317 320 315 314 315 316 315 314 315 315 318 317 316 317 318 318 319 319 317 319 317 317 317 318
300 300 298 300 301 304 304 302 303 303 303 306 305 307 314 314 313 314 312 320 325 319 314 321 319 315 314 315 315 316 315 317 317 318 318 317 318 318 319 319 317 317 316 316 317 319 319
302 300 300 299 300 301 304 303 301 302 302 303 305 305 311 314 315 315 319 325 325 320 321 321 317 315 315 315 315 315 314 314 313 315 316 317 319 320 320 319 320 320 316 317 318 320 320
303 301 300 300 299 301 301 303 301 300 303 304 305 305 311 313 315 312 322 326 320 319 321 314 316 316 316 316 315 315 313 313 312 314 316 320 320 321 321 321 320 321 319 317 321 319 323
303 302 301 300 299 300 302 303 302 299 301 303 305 306 311 312 314 312 321 322 322 319 321 321 317 316 316 316 315 314 313 313 314 313 314 318 319 321 321 320 320 320 318 320 319 325 325
304 303 301 300 300 301 303 303 301 299 300 302 305 309 310 312 313 312 318 319 320 319 319 323 322 318 316 316 315 313 314 313 314 314 315 319 315 317 321 321 319 319 318 317 317 316 318
304 304 302 301 300 301 304 303 301 299 300 302 305 309 311 312 317 314 313 316 316 318 318 321 323 323 318 315 315 315 315 315 313 318 318 318 316 317 319 318 318 319 319 316 316 316 314
304 304 302 301 300 301 303 302 301 299 301 302 305 310 312 312 317 315 313 316 317 318 317 320 322 321 318 315 315 315 315 317 317 317 318 318 318 317 318 318 317 320 317 318 315 312 316
304 304 302 301 300 301 301 301 300 298 299 301 306 311 313 313 313 314 313 316 318 317 317 317 320 322 321 319 317 317 319 321 319 319 318 316 315 317 319 318 317 320 320 317 317 315 315
304 304 302 301 300 300 300 300 299 299 297 301 306 309 310 315 313 315 313 314 317 319 316 315 316 320 322 320 319 320 322 322 320 318 318 318 318 315 314 314 319 319 319 318 317 316 316
305 304 302 301 300 299 300 300 299 299 297 300 306 311 313 312 312 313 313 314 315 318 317 316 315 318 317 320 317 317 321 320 320 320 318 316 316 318 320 317 317 319 317 316 316 317 315
304 303 301 300 299 299 299 299 299 297 299 301 304 305 312 312 312 313 313 313 314 316 316 316 317 318 319 319 317 315 318 317 318 319 317 316 314 314 317 314 314 315 314 315 315 314 315
304 303 301 299 299 299 299 298 298 299 299 303 304 306 313 312 314 313 311 313 313 314 314 315 313 317 317 316 316 315 315 317 321 320 316 313 312 309 312 310 315 316 314 313 313 312 312
303 301 300 299 299 299 298 298 299 298 299 299 304 305 311 309 312 314 312 312 312 313 313 313 316 312 316 317 317 319 313 317 317 317 320 316 310 312 314 314 314 315 312 312 313 314 312
302 300 299 299 299 299 298 298 299 299 297 297 299 302 306 313 313 314 313 312 313 313 312 317 312 317 316 313 311 318 320 319 318 319 314 311 311 315 309 313 315 314 312 312 311 313 312
300 299 299 299 298 298 297 298 298 298 298 298 300 300 306 309 314 315 316 315 312 312 312 316 321 321 316 307 309 313 314 317 318 317 314 311 308 312 305 308 309 309 312 309 312 311 312
298 298 298 298 297 297 297 298 298 299 299 299 300 303 304 307 309 314 314 315 314 312 314 315 322 320 309 317 315 311 310 314 313 315 314 316 313 308 307 307 314 311 312 310 309 311 311
297 297 297 297 297 297 297 298 299 299 299 299 301 304 303 307 309 308 308 309 312 312 314 317 319 320 318 317 313 310 310 305 313 317 315 315 313 313 313 312 310 311 311 310 310 311 309

GFSGBSN_925_thetae_030.txt.gz
Theta_e
309 309 310 309 309 309 309 309 312 316 316 318 320 321 321 321 318 315 312 311 311 310 312 312 309 307 309 309 307 315 314 314 313 313 313 311 314 314 314 311 311 311 311 313 321 323 325
308 308 308 309 309 309 308 307 306 309 313 318 318 321 321 321 320 316 314 311 310 310 311 311 309 308 311 306 313 318 314 313 313 313 311 311 314 314 314 313 311 312 314 321 323 324 325
307 308 308 307 307 309 309 308 308 306 306 313 317 319 320 320 321 318 314 312 310 310 311 311 309 309 311 306 312 316 315 313 313 312 312 313 315 314 314 314 314 317 323 323 323 323 323
307 307 307 308 307 307 308 309 308 307 306 306 314 317 319 319 320 320 316 313 311 310 311 311 309 311 313 309 313 311 314 315 314 311 312 312 313 313 314 313 313 315 317 317 324 324 322
308 306 307 307 307 307 307 307 308 308 307 305 308 315 317 319 320 320 317 313 310 310 312 310 310 313 311 310 312 314 315 316 314 312 312 313 313 313 312 314 312 311 314 315 324 324 322
305 308 306 306 306 307 307 306 307 308 308 306 304 311 315 317 319 319 317 313 310 312 311 310 310 309 306 313 315 317 318 317 315 314 314 314 310 312 311 311 315 317 316 315 317 323 324
303 304 306 308 305 306 306 307 306 306 307 307 306 305 313 316 319 319 315 309 308 313 311 312 308 305 307 314 317 315 316 317 316 315 316 314 314 314 313 314 316 317 317 317 314 314 324
302 301 303 306 308 305 306 306 306 306 307 307 307 306 312 315 318 318 313 309 312 312 316 313 313 311 311 315 319 315 316 316 316 316 317 315 317 314 314 315 317 318 318 317 316 312 319
301 301 300 302 304 307 305 305 305 306 306 306 307 305 309 314 317 316 313 310 314 316 315 314 315 316 316 316 318 317 312 314 316 316 317 316 315 316 318 317 319 318 318 317 317 313 312
301 301 301 300 301 304 307 304 304 305 305 306 307 306 305 315 315 313 310 315 315 315 314 315 319 318 317 317 316 315 313 315 317 316 316 316 315 318 319 319 318 319 317 316 317 312 313
302 302 301 301 301 301 303 306 304 304 304 305 306 306 303 314 312 312 315 315 314 314 310 312 320 317 316 314 314 315 314 314 315 317 315 317 318 319 319 318 318 318 317 317 317 316 316
302 302 302 301 301 301 302 303 306 303 304 304 304 305 304 312 313 314 316 313 316 318 310 311 318 318 314 314 315 312 313 313 313 316 316 315 315 317 316 317 317 317 318 314 315 315 318
303 303 302 302 301 301 301 301 304 304 302 304 304 305 305 311 314 316 316 315 326 320 312 314 321 314 313 313 314 314 313 315 315 316 317 317 317 317 318 319 317 316 314 315 316 319 319
303 303 303 302 302 301 301 301 302 305 302 303 303 306 305 309 313 314 317 321 323 318 315 317 316 313 314 313 313 314 313 314 313 313 314 317 316 319 319 318 317 318 316 316 316 318 317
303 303 303 303 302 302 300 301 301 305 302 302 302 303 305 307 313 313 318 321 318 317 318 316 315 315 314 314 314 314 313 312 312 313 315 316 317 319 320 320 318 318 318 314 319 317 321
304 304 304 303 303 302 301 300 301 301 302 301 303 304 305 306 312 312 317 318 319 316 321 321 315 315 315 314 314 314 312 312 313 313 314 317 317 319 320 319 319 318 316 319 317 323 324
304 304 304 304 303 302 301 300 301 301 302 301 304 306 304 307 312 314 316 316 316 318 319 321 323 321 315 315 313 313 314 313 312 311 313 315 314 314 320 318 316 317 318 315 316 315 318
302 304 304 304 304 302 301 300 300 301 302 301 304 305 307 310 315 313 316 313 314 318 318 319 320 323 321 314 314 313 314 314 311 314 315 316 313 312 316 316 316 316 316 315 316 317 313
302 302 304 304 304 303 302 301 300 302 302 301 304 306 309 309 312 314 313 315 314 316 318 319 320 321 319 316 315 314 313 313 314 314 316 316 315 314 315 315 316 318 316 315 313 311 315
301 302 303 304 304 303 302 301 300 302 301 301 303 305 309 310 310 311 313 314 313 316 316 317 318 320 321 320 314 314 314 319 315 314 316 315 315 314 316 314 315 319 317 316 316 314 315
301 302 303 302 305 303 302 301 301 302 300 301 304 305 309 312 310 311 311 313 314 314 316 316 316 319 319 320 317 318 320 321 318 318 315 314 315 314 314 315 316 317 318 315 316 315 316
301 302 302 303 304 303 302 301 303 302 299 302 303 306 310 312 308 310 313 313 314 314 316 316 316 316 318 321 317 317 321 319 318 317 316 314 316 314 318 317 317 318 316 315 315 315 314
301 301 302 303 303 302 301 302 302 301 301 300 300 302 308 309 310 310 311 312 312 314 314 315 315 315 317 316 316 315 314 316 317 317 316 314 313 313 318 314 314 315 314 315 314 313 314
301 301 302 302 303 302 301 302 301 299 300 299 300 304 308 311 311 310 309 311 312 313 315 315 315 315 312 315 314 314 313 316 318 317 314 310 311 310 312 311 315 315 313 313 313 312 311
302 302 303 301 303 302 301 301 300 299 298 298 300 302 307 309 310 312 310 309 312 312 314 315 314 313 315 316 318 320 314 318 317 314 315 312 309 311 314 314 313 315 312 312 312 312 310
302 302 302 302 302 301 301 301 301 300 299 298 301 301 305 308 310 310 312 309 311 311 311 312 312 312 314 315 312 319 322 319 318 318 312 310 308 313 307 313 315 314 313 309 310 312 309
302 300 304 302 301 301 300 300 300 300 300 299 300 301 301 304 309 310 312 311 309 310 310 311 314 318 314 305 311 314 317 317 319 320 316 311 308 312 303 308 312 310 310 308 313 313 309
300 303 302 301 300 300 299 300 300 300 299 299 299 299 300 306 306 309 310 310 310 310 311 312 318 316 307 315 314 313 310 314 313 315 316 319 315 309 307 307 318 308 311 311 310 309 309
302 301 301 300 300 300 299 299 299 299 299 298 297 297 298 304 308 306 306 307 308 310 310 310 312 316 316 317 310 309 310 304 312 316 313 317 314 314 314 314 311 308 310 308 307 309 309